Flag Weather past 2 weeks in Fatehpur, Uttar Pradesh, India

Now
55 °F

Fog.


Feels Like: 55 °F
Forecast: 59 / 83 °F
Wind: 2 mph from North

Location: Lucknow / Amausi

Current Time: Nov 22, 2014 at 2:14:28 AM

Latest Report: Nov 22, 2014 at 1:00 AM


Visibility: 2 mi

Pressure: 29.89 "Hg

Humidity: 88%

Dew point: 52 °F

Location of FatehpurLocation

Historic Weather in Fatehpur — Graph

°F

Fatehpur temperature yesterday

Maximum temperature yesterday: 81 °F (at 1:30 PM)
Minimum temperature yesterday: 54 °F (at 3:00 AM)
Average temperature yesterday: 67 °F

Past Weeks' High & Low Weather Summary

 TemperatureHumidityPressure
High88 °F (Nov 9, 2:30 PM)94% (Nov 7, 5:00 AM)30.09 "Hg (Nov 7, 5:00 AM)
Low50 °F (Nov 17, 5:30 AM)24% (Nov 15, 2:30 PM)29.83 "Hg (Nov 7, 1:00 AM)
Average71 °F60%29.95 "Hg
* Reported Nov 7 1:00 AM — Nov 22 1:00 AM, Fatehpur, Weather by CustomWeather, © 2014

Note: Actual official high and low records may vary slightly from our data, if they occured in-between our weather recording intervals... More about our weather records

Advertising

Fatehpur weather history for previous 24 hours

 ConditionsComfort  
Time TempWeatherWind HumidityBarometerVisibility
1:00 AM
Nov 22
55 °FFog.2 mph88%29.89 "Hg1 mi
12:00 AM57 °FFog.2 mph82%29.92 "Hg1 mi
11:00 PM
Nov 21
64 °FFog.2 mph68%29.89 "Hg2 mi
10:00 PM61 °FFog.2 mph77%29.92 "Hg2 mi
9:00 PM63 °FFog.2 mph73%29.92 "Hg2 mi
8:30 PM64 °FHaze.No wind68%29.92 "Hg2 mi
8:00 PM64 °FHaze.No wind73%29.92 "Hg2 mi
7:30 PM64 °FHaze.No wind73%29.92 "Hg2 mi
7:00 PM64 °FHaze.No wind73%29.89 "Hg2 mi
6:30 PM66 °FHaze.No wind68%29.89 "Hg2 mi
6:00 PM70 °FHaze.No wind64%29.89 "Hg2 mi
5:30 PM72 °FHaze.No wind61%29.89 "Hg2 mi
5:00 PM77 °FHaze.No wind44%29.86 "Hg2 mi
4:30 PM79 °FHaze.2 mph42%29.89 "Hg2 mi
4:00 PM79 °FHaze.3 mph37%29.89 "Hg2 mi
3:30 PM79 °FHaze.5 mph39%29.89 "Hg2 mi
3:00 PM81 °FHaze.5 mph37%29.89 "Hg2 mi
2:00 PM81 °FHaze.5 mph34%29.89 "Hg2 mi
1:30 PM81 °FHaze.5 mph34%29.92 "Hg2 mi
1:00 PM79 °FHaze.3 mph34%N/A2 mi
12:30 PM79 °FHaze.3 mph34%29.95 "Hg2 mi
12:00 PM79 °FHaze.3 mph34%29.98 "Hg2 mi
11:30 AM77 °FHaze.3 mph39%29.98 "Hg2 mi
10:30 AM72 °FScattered clouds.3 mph47%30.01 "Hg1 mi
10:00 AM70 °FScattered clouds.2 mph53%30.01 "Hg1 mi
9:30 AM68 °FFog.2 mph56%30.01 "Hg1 mi
9:00 AM64 °FFog.2 mph60%30.01 "Hg1 mi
8:00 AM55 °FFog.No wind88%29.98 "Hg1 mi
7:30 AM55 °FFog.No wind82%29.98 "Hg1 mi
7:00 AM54 °FFog.No wind88%29.95 "Hg1 mi
6:00 AM54 °FFog.No wind88%29.92 "Hg1 mi
5:30 AM54 °FFog.No wind88%29.92 "Hg1 mi
5:00 AM54 °FFog.No wind88%29.92 "Hg1 mi
4:00 AM54 °FFog.No wind88%29.89 "Hg1 mi
3:00 AM54 °FFog.No wind88%29.89 "Hg2 mi
2:00 AM55 °FFog.No wind94%29.92 "Hg1 mi
Weather by CustomWeather, © 2014

See weather overviewHow to use our weather pages